Home   Weather   San Buenaventura   Past weeks

Flag for USA Past Weather in San Buenaventura, California, USA — Yesterday and Last 2 Weeks

64 °F


Feels Like: 64 °F
Forecast: 59 / 73 °F
Wind: No wind

Location: Oxnard Airport

Current Time: Oct 21, 2016 at 10:30:05 PM

Latest Report: Oct 21, 2016 at 9:51 PM

Visibility: 10 mi

Pressure: 29.85 "Hg

Humidity: 84%

Dew Point: 59 °F

Location of San BuenaventuraLocation

Past Weather in San Buenaventura — Graph


San Buenaventura Temperature Yesterday

Maximum temperature yesterday: 96 °F (at 12:51 PM)
Minimum temperature yesterday: 63 °F (at 9:51 PM)
Average temperature yesterday: 77 °F

High & Low Weather Summary for the Past Weeks

High96 °F (Oct 20, 12:51 PM)97% (Oct 15, 9:51 PM)30.09 "Hg (Oct 15, 9:51 PM)
Low54 °F (Oct 13, 3:51 AM)6% (Oct 20, 11:51 AM)29.81 "Hg (Oct 21, 5:51 PM)
Average66 °F66%29.95 "Hg
* Reported Oct 6 8:51 PM — Oct 21 8:51 PM, San Buenaventura, Weather by CustomWeather, © 2016

Note: Actual official high and low records may vary slightly from our data, if they occured in-between our weather recording intervals... More about our weather records


San Buenaventura Weather History for the Previous 24 Hours

Scroll right to see more
Time TempWeatherWind HumidityBarometerVisibility
8:51 PM
Fri, Oct 21
67 °FClear.3 mph79%29.84 "Hg10 mi
7:51 PM70 °FClear.No wind66%29.82 "Hg10 mi
6:51 PM72 °FClear.3 mph57%29.81 "Hg10 mi
5:51 PM76 °FSunny.3 mph42%29.81 "Hg10 mi
4:51 PM76 °FSunny.3 mph47%29.82 "Hg10 mi
3:51 PM76 °FSunny.8 mph47%29.82 "Hg10 mi
2:51 PM78 °FSunny.7 mph46%29.83 "Hg10 mi
1:51 PM79 °FSunny.8 mph32%29.83 "Hg10 mi
12:51 PM84 °FSunny.8 mph17%29.85 "Hg10 mi
11:51 AM84 °FSunny.7 mph24%29.86 "Hg10 mi
10:51 AM82 °FSunny.6 mph24%29.87 "Hg10 mi
9:51 AM83 °FSunny.5 mph13%29.88 "Hg10 mi
8:51 AM77 °FSunny.8 mph15%29.88 "Hg10 mi
7:51 AM70 °FSunny.7 mph20%29.87 "Hg10 mi
6:51 AM68 °FClear.8 mph21%29.86 "Hg10 mi
5:51 AM69 °FClear.7 mph20%29.85 "Hg10 mi
4:51 AM66 °FClear.7 mph23%29.84 "Hg10 mi
3:51 AM71 °FClear.8 mph18%29.84 "Hg10 mi
2:51 AM70 °FClear.8 mph20%29.84 "Hg10 mi
1:51 AM70 °FClear.7 mph20%29.85 "Hg10 mi
12:51 AM68 °FClear.7 mph25%29.85 "Hg10 mi
11:51 PM
Thu, Oct 20
67 °FClear.8 mph41%29.87 "Hg10 mi
10:51 PM63 °FClear.5 mph70%29.89 "Hg10 mi
Weather by CustomWeather, © 2016

See weather overviewHow to use our weather pages